Location: Gönnheim
(49.4488°N, 8.2383°E)
Time: 00:36:57
(UTC+00:00)

BREEZE-M DEB (TANK) - Pass Details

Date: 19 May 2025
Orbit: 281 x 12174 km, 49.5° (Epoch: 15 June)

Event Time Altitude Azimuth Distance (km) Brightness Sun altitude
Rises 20:21:32 0° 262° (W) 12,244 9.7 -9.7°
Reaches altitude 10° 20:34:14 10° 264° (W) 8,908 8.9 -11.1°
Maximum altitude 20:56:36 89° 356° (N) 1,546 4.5 -13.3°
Drops below altitude 10° 21:01:53 10° 89° (E) 2,400 5.2 -13.8°
Enters shadow 21:02:51 - 89° (E) 2,788 5.6 -13.9°
